Wind_Speed
18 17 18 18 18 18 19 19 19 18 17 15 14 15 15 14 13 13 13 13 13 13 12 12 12 12 12 13 13 13 13 14 14 14 14 14 14 15 15 15 16 15 16 16
18 18 19 20 19 18 18 18 18 18 17 15 14 15 16 16 15 14 14 14 13 13 13 13 13 14 14 14 15 15 14 14 14 15 15 15 14 14 15 16 16 16 16 16
18 18 19 19 19 19 19 17 16 16 16 17 16 16 16 16 16 16 15 14 14 14 14 14 14 15 15 16 16 16 15 15 15 16 16 16 16 16 16 17 16 16 15 16
19 18 19 17 18 18 18 17 17 16 17 18 18 17 18 17 16 16 15 14 15 15 16 15 16 16 16 16 17 16 16 16 16 16 16 17 17 17 18 17 17 16 17 17
21 20 20 18 18 18 18 19 19 19 19 18 18 18 18 18 16 16 16 16 16 16 16 16 17 17 17 17 17 17 17 16 17 17 16 17 17 17 18 18 18 18 18 18
21 21 21 18 18 18 19 19 19 20 20 20 19 19 19 19 19 17 17 17 17 16 16 16 16 17 18 18 17 17 17 17 17 17 17 17 18 18 18 19 18 19 19 19
21 22 21 18 18 18 19 19 19 19 19 20 20 20 20 20 19 18 18 18 17 18 18 17 17 17 17 17 17 17 17 17 18 18 19 19 19 19 19 20 20 19 19 19
22 23 21 19 18 19 20 20 20 20 20 20 20 20 20 20 20 19 19 19 19 18 18 18 18 18 18 18 18 18 19 19 19 20 20 20 20 20 21 21 21 20 20 20
22 22 21 21 20 20 21 21 21 21 21 21 21 21 21 21 21 20 20 19 19 18 18 18 19 19 19 19 19 19 20 20 20 20 20 20 20 21 21 21 20 20 21 21
23 23 23 22 23 23 21 21 21 22 22 21 22 21 21 21 22 21 20 19 18 19 19 19 19 20 20 19 19 19 20 20 20 20 21 21 21 22 21 21 21 21 22 21
23 23 24 23 23 24 23 22 22 22 22 22 22 22 21 21 20 19 18 19 19 19 20 20 21 20 20 19 20 20 20 20 21 21 21 22 22 22 21 21 21 21 22 22
24 24 25 24 23 23 22 22 22 22 23 23 23 23 22 21 20 20 20 19 19 19 20 21 20 20 20 20 20 20 20 21 21 21 21 22 22 22 21 21 22 22 22 23
24 24 24 24 23 22 22 22 23 24 24 24 23 22 21 20 21 21 21 21 20 20 20 20 20 20 20 20 20 20 21 21 21 21 22 22 21 21 22 22 22 22 21 22
24 24 24 24 23 22 23 23 24 24 24 23 22 21 21 21 21 21 20 20 20 20 20 20 20 20 20 21 21 21 21 22 22 22 22 22 22 22 22 22 22 22 22 22
24 24 24 23 23 22 23 23 24 23 22 22 22 21 21 21 21 20 20 20 20 20 20 21 21 21 21 21 21 21 21 22 22 22 22 22 22 22 22 22 22 21 21 21
24 24 24 23 23 23 23 22 22 22 22 22 22 21 20 20 20 20 20 21 21 20 20 21 20 20 21 21 21 21 21 21 22 21 21 21 21 21 21 21 21 21 20 21
24 24 23 22 21 21 21 22 22 21 21 21 20 20 19 18 19 20 20 20 20 20 20 20 20 20 20 20 20 20 20 21 21 21 21 20 20 20 20 20 20 20 20 20
23 23 23 22 21 21 21 22 22 21 20 19 20 20 19 19 19 19 19 19 20 20 20 20 20 20 20 20 20 20 20 20 20 20 20 20 19 19 19 19 19 19 20 20
22 22 22 21 21 21 21 21 21 21 21 21 20 20 20 20 19 20 20 20 20 19 19 20 20 20 20 20 20 19 19 20 20 19 19 19 18 18 18 18 18 19 19 20
22 22 22 21 21 21 21 20 20 21 21 21 21 21 20 20 20 20 20 20 19 19 19 20 20 20 20 20 20 19 19 19 19 19 18 18 18 18 19 19 19 19 19 20
20 21 22 21 21 21 21 21 21 22 22 22 21 21 20 19 20 20 20 20 20 20 20 20 20 20 20 20 20 20 19 18 18 18 18 18 18 18 19 19 19 20 20 20
19 19 20 20 20 21 21 21 21 21 21 21 21 20 19 19 18 19 19 19 19 19 20 20 19 20 20 20 20 19 19 19 18 18 18 18 18 18 19 19 19 20 20 20
18 18 18 18 19 19 20 21 21 20 19 20 19 19 19 19 18 18 18 18 18 18 19 19 19 19 19 19 19 19 18 18 18 17 17 17 18 19 19 18 18 18 18 18
16 17 18 17 17 18 18 19 19 18 18 18 18 18 18 18 18 18 18 18 18 18 18 19 19 19 19 18 17 17 17 17 17 17 17 17 18 17 17 17 17 18 18 18
15 16 17 17 17 18 18 18 17 17 18 18 18 19 19 19 19 18 18 18 19 19 19 19 19 19 19 19 18 18 18 18 18 18 18 18 18 18 18 19 19 18 19 19
14 15 16 16 17 17 17 18 18 18 18 18 19 19 19 19 19 19 19 19 19 19 19 19 19 19 19 18 18 18 19 19 19 19 19 19 19 19 19 19 19 19 19 19
14 15 15 15 16 16 16 16 17 18 18 18 18 18 19 19 19 18 19 20 20 20 20 20 19 19 19 19 19 19 20 20 20 20 20 21 21 20 20 20 20 20 20 20
Wind_Direction
253 253 252 249 249 252 256 261 263 265 269 272 272 275 275 275 274 274 275 279 284 286 284 286 284 282 287 287 288 289 291 292 292 289 290 292 290 292 295 296 297 297 298 299
253 253 252 250 251 251 253 259 264 265 270 274 276 276 276 274 274 275 274 276 280 282 282 283 283 281 285 287 285 286 288 288 288 288 290 292 292 293 292 294 295 295 296 297
246 246 248 247 249 251 252 257 263 269 270 272 276 275 275 275 274 276 279 276 276 278 279 278 279 281 285 285 287 286 288 286 284 285 286 287 288 289 293 294 294 294 295 297
247 245 244 247 251 254 256 261 266 272 275 275 275 274 273 275 271 272 276 276 276 276 277 277 278 280 283 286 289 290 287 286 285 285 284 284 286 288 292 293 293 293 294 297
248 245 245 248 251 256 261 263 270 273 277 275 273 273 271 271 271 273 273 273 275 277 276 276 278 280 282 285 287 288 287 287 287 285 284 285 286 289 292 291 291 292 293 295
249 248 247 248 252 255 260 264 269 272 275 274 275 275 273 273 272 273 274 275 276 276 276 277 279 279 279 281 282 284 284 285 287 287 286 286 286 287 289 289 289 290 292 293
247 249 250 250 252 256 261 267 270 273 274 275 276 276 275 276 274 272 273 273 274 275 275 275 276 278 279 280 282 282 284 285 287 288 288 286 285 287 290 289 289 290 291 291
249 252 253 254 257 260 265 267 269 272 275 276 278 277 275 275 275 274 272 272 273 272 271 272 273 276 278 279 280 282 284 286 286 287 286 286 286 287 291 291 290 289 289 290
248 252 255 256 259 261 263 265 268 270 273 276 277 277 275 273 274 272 272 272 271 269 270 271 273 275 277 278 279 281 282 283 284 285 285 285 286 288 290 289 290 289 289 289
248 250 253 256 260 264 266 267 269 271 273 275 276 276 276 275 274 274 272 272 272 273 272 273 274 275 277 278 279 279 280 281 283 284 284 285 286 287 288 287 289 291 290 290
251 253 254 257 260 262 264 267 270 272 272 271 274 274 274 274 272 271 272 271 272 270 271 272 274 275 277 278 279 279 280 281 281 282 283 285 286 286 286 287 287 289 291 291
250 251 254 255 256 258 261 264 269 272 273 271 270 269 269 269 270 270 271 273 275 275 274 274 276 276 277 278 279 281 282 283 283 283 283 285 286 286 286 287 287 288 291 292
250 250 253 255 256 258 261 265 269 271 272 272 268 266 265 266 269 271 272 273 274 275 276 277 277 277 276 277 280 282 283 284 284 283 283 283 285 287 287 288 289 288 292 293
247 250 252 255 257 260 263 265 268 271 270 268 265 263 263 265 268 271 272 274 275 277 278 278 277 278 278 278 280 281 282 283 284 283 282 283 283 285 288 288 288 288 291 292
249 252 254 254 257 261 265 267 268 270 270 267 264 264 266 266 269 270 272 274 275 276 276 277 277 277 277 278 280 281 283 285 286 285 284 285 284 284 286 287 287 287 288 291
249 251 254 256 258 260 264 267 268 270 269 266 264 265 267 269 270 272 272 272 272 273 275 277 277 277 278 279 280 281 282 284 285 284 286 286 285 284 284 286 287 286 287 290
248 249 250 252 255 258 261 263 266 267 265 263 262 265 268 269 270 271 271 270 270 272 274 277 277 279 282 282 282 282 283 284 284 284 286 285 284 284 285 286 288 288 288 289
247 249 251 253 255 260 262 262 263 265 264 264 263 264 266 268 269 269 269 270 272 274 276 277 278 280 283 284 282 281 282 283 285 285 285 284 283 282 284 287 288 289 290 290
248 249 252 255 257 259 261 261 262 263 263 263 263 264 264 265 266 266 268 270 271 272 274 277 279 281 283 284 284 283 282 282 284 285 285 283 281 282 284 285 287 289 289 289
254 254 254 256 256 255 259 263 264 263 263 263 262 263 263 263 264 266 268 269 270 271 273 276 279 281 284 285 286 287 284 283 283 283 282 281 281 282 283 285 287 288 289 291
257 256 255 256 256 256 261 265 266 265 265 262 260 260 262 264 265 266 266 266 266 268 273 276 279 282 285 286 287 287 286 284 282 281 280 281 281 281 284 286 288 289 290 292
260 260 259 260 260 262 265 267 267 266 265 261 259 260 262 265 266 265 267 267 266 268 271 275 278 281 284 287 288 287 285 284 282 281 280 280 282 284 286 288 289 290 291 292
260 262 262 263 263 266 267 268 268 266 263 262 259 258 260 261 263 264 266 268 269 270 273 275 276 278 280 284 286 286 285 284 284 284 283 284 287 288 289 290 291 291 292 293
263 263 264 265 266 266 268 269 267 265 263 261 261 260 260 262 263 263 265 267 269 271 274 276 276 276 277 280 284 285 284 284 285 285 285 287 290 289 288 288 289 290 291 294
269 268 267 267 269 270 271 271 267 263 260 259 260 260 261 262 263 266 267 269 270 271 273 274 273 273 275 277 281 282 283 283 284 284 284 285 286 285 286 287 288 288 288 290
271 269 270 273 275 276 275 273 269 266 263 260 259 260 261 262 263 262 264 267 270 272 274 274 272 272 275 278 279 280 281 283 284 284 286 286 287 286 285 286 287 288 289 291
278 274 271 273 276 277 276 274 271 266 264 264 262 262 262 262 262 262 264 266 269 271 272 274 274 275 275 276 276 278 279 280 280 281 285 287 287 287 284 284 286 288 290 291
Height
5790 5791 5792 5792 5793 5794 5795 5795 5795 5796 5796 5797 5797 5797 5796 5796 5797 5797 5797 5797 5797 5796 5795 5794 5794 5793 5792 5791 5791 5789 5788 5787 5787 5786 5785 5784 5783 5782 5780 5779 5777 5776 5775 5773
5786 5787 5787 5787 5789 5790 5790 5791 5791 5791 5792 5792 5792 5792 5792 5793 5793 5793 5792 5793 5792 5792 5791 5791 5790 5790 5788 5787 5787 5785 5784 5783 5782 5782 5781 5780 5779 5778 5776 5775 5773 5772 5770 5769
5781 5782 5782 5783 5785 5785 5786 5786 5786 5786 5787 5787 5787 5788 5788 5788 5789 5788 5788 5788 5788 5787 5787 5787 5786 5786 5785 5783 5781 5779 5779 5779 5778 5777 5776 5775 5774 5773 5772 5770 5769 5767 5765 5764
5776 5777 5777 5782 5780 5781 5781 5781 5781 5781 5782 5783 5783 5784 5784 5784 5784 5783 5783 5783 5783 5783 5782 5782 5782 5781 5780 5778 5777 5775 5774 5773 5772 5772 5771 5770 5769 5768 5767 5765 5764 5762 5761 5759
5770 5771 5772 5775 5776 5777 5777 5777 5777 5777 5778 5778 5778 5779 5779 5779 5779 5778 5778 5778 5778 5777 5777 5776 5776 5775 5775 5773 5772 5771 5770 5769 5768 5767 5766 5765 5764 5763 5762 5760 5759 5758 5756 5754
5764 5765 5767 5771 5772 5771 5772 5772 5773 5773 5773 5773 5773 5773 5774 5773 5773 5773 5773 5773 5772 5772 5772 5771 5771 5770 5769 5769 5768 5766 5765 5764 5763 5762 5762 5761 5759 5758 5757 5755 5754 5752 5751 5749
5759 5760 5761 5765 5765 5766 5767 5768 5768 5768 5768 5767 5767 5768 5768 5767 5767 5767 5767 5767 5766 5766 5766 5766 5766 5765 5765 5764 5763 5762 5760 5759 5758 5757 5756 5755 5754 5752 5751 5749 5748 5747 5745 5744
5753 5754 5758 5759 5759 5760 5761 5761 5761 5762 5762 5762 5761 5761 5761 5761 5761 5761 5761 5761 5760 5760 5760 5760 5760 5760 5759 5758 5757 5756 5755 5754 5753 5752 5750 5749 5748 5746 5745 5743 5742 5741 5739 5737
5748 5751 5751 5752 5752 5753 5754 5755 5755 5755 5756 5756 5755 5754 5755 5755 5755 5755 5754 5754 5754 5754 5755 5754 5754 5754 5753 5752 5751 5750 5749 5748 5747 5745 5744 5743 5742 5740 5739 5737 5736 5734 5733 5731
5741 5742 5744 5745 5746 5746 5747 5748 5748 5749 5749 5749 5749 5749 5749 5749 5749 5749 5748 5748 5748 5748 5748 5748 5747 5747 5747 5746 5745 5744 5743 5742 5741 5740 5738 5737 5735 5734 5733 5731 5730 5728 5726 5725
5734 5736 5737 5738 5739 5740 5740 5741 5742 5742 5742 5742 5742 5742 5742 5742 5743 5743 5742 5742 5742 5742 5742 5741 5741 5740 5740 5739 5739 5738 5737 5736 5735 5733 5732 5730 5729 5727 5726 5725 5723 5722 5720 5718
5726 5728 5730 5731 5732 5733 5734 5734 5734 5735 5735 5735 5735 5736 5736 5736 5736 5737 5737 5736 5736 5736 5735 5735 5735 5734 5734 5733 5732 5731 5730 5729 5728 5727 5725 5724 5722 5720 5719 5718 5717 5715 5713 5712
5718 5720 5722 5723 5725 5726 5727 5727 5727 5727 5727 5727 5727 5728 5728 5729 5730 5730 5731 5731 5730 5729 5729 5728 5728 5727 5727 5726 5726 5725 5723 5722 5721 5720 5718 5717 5715 5714 5713 5712 5710 5708 5706 5705
5711 5713 5715 5716 5718 5719 5719 5720 5720 5720 5720 5720 5720 5721 5722 5722 5723 5724 5724 5724 5724 5723 5722 5721 5721 5720 5720 5719 5718 5718 5716 5715 5714 5713 5711 5710 5708 5707 5706 5704 5703 5702 5700 5698
5705 5707 5709 5710 5711 5712 5712 5713 5713 5714 5713 5713 5713 5714 5715 5715 5716 5717 5717 5717 5717 5716 5715 5714 5714 5713 5712 5712 5711 5710 5709 5708 5707 5705 5704 5702 5701 5700 5699 5697 5696 5695 5693 5692
5698 5700 5702 5703 5704 5705 5705 5706 5707 5708 5708 5707 5708 5708 5708 5709 5709 5709 5710 5710 5710 5709 5709 5708 5707 5706 5705 5705 5704 5703 5702 5701 5699 5698 5696 5695 5694 5693 5692 5690 5689 5688 5687 5685
5691 5693 5695 5696 5697 5698 5699 5700 5701 5701 5702 5702 5702 5702 5702 5703 5703 5703 5703 5703 5703 5702 5702 5701 5700 5700 5699 5698 5696 5695 5695 5693 5692 5691 5689 5688 5687 5686 5685 5684 5682 5681 5680 5678
5685 5686 5688 5690 5691 5692 5692 5693 5694 5695 5695 5695 5696 5696 5696 5696 5696 5696 5696 5696 5696 5696 5695 5694 5693 5693 5692 5691 5690 5689 5688 5686 5685 5684 5683 5682 5680 5680 5679 5677 5676 5675 5673 5672
5678 5680 5681 5683 5684 5685 5686 5687 5687 5688 5688 5689 5689 5689 5689 5689 5690 5690 5690 5690 5689 5689 5688 5688 5687 5686 5685 5684 5683 5682 5681 5680 5678 5677 5676 5675 5674 5673 5672 5671 5670 5668 5667 5665
5673 5674 5675 5676 5677 5678 5679 5680 5681 5681 5681 5682 5682 5682 5682 5682 5683 5683 5683 5683 5682 5682 5682 5681 5680 5679 5678 5677 5676 5675 5674 5673 5671 5670 5669 5668 5668 5667 5666 5665 5663 5662 5660 5658
5667 5668 5669 5670 5671 5672 5673 5673 5674 5674 5674 5675 5675 5675 5676 5676 5676 5676 5676 5676 5676 5675 5675 5675 5674 5673 5672 5671 5670 5669 5667 5666 5665 5664 5663 5662 5661 5660 5659 5658 5657 5655 5653 5652
5661 5662 5663 5664 5664 5665 5666 5666 5667 5667 5667 5667 5668 5668 5669 5669 5669 5669 5669 5669 5669 5669 5668 5668 5667 5667 5666 5665 5664 5662 5661 5659 5658 5658 5657 5656 5655 5654 5653 5652 5650 5649 5647 5645
5655 5656 5657 5657 5658 5659 5659 5659 5659 5659 5660 5660 5661 5661 5662 5662 5663 5663 5663 5662 5662 5662 5662 5661 5661 5660 5659 5658 5657 5656 5654 5653 5652 5651 5651 5650 5649 5648 5647 5645 5644 5642 5641 5639
5650 5651 5651 5651 5652 5652 5652 5652 5652 5653 5653 5654 5654 5655 5655 5656 5656 5656 5656 5656 5656 5656 5655 5654 5654 5653 5653 5652 5651 5650 5649 5647 5646 5645 5644 5643 5642 5641 5640 5639 5638 5636 5634 5633
5645 5645 5645 5645 5646 5646 5646 5646 5646 5646 5647 5647 5648 5648 5649 5649 5649 5650 5649 5649 5649 5649 5648 5648 5647 5646 5646 5645 5645 5644 5643 5642 5641 5639 5638 5637 5636 5635 5634 5633 5631 5630 5628 5627
5640 5640 5640 5640 5640 5640 5639 5639 5640 5640 5640 5641 5641 5642 5642 5642 5642 5642 5642 5642 5642 5642 5642 5641 5640 5640 5639 5638 5638 5637 5636 5635 5634 5633 5632 5631 5630 5629 5628 5627 5625 5624 5622 5621
5635 5634 5634 5634 5634 5633 5633 5633 5633 5633 5634 5634 5634 5635 5635 5635 5635 5635 5635 5635 5636 5635 5635 5634 5634 5633 5632 5631 5631 5630 5629 5629 5628 5627 5626 5624 5623 5622 5621 5620 5619 5618 5616 5615